Change the Weather History Date:

Wednesday, June 18, 2014

  Actual Average Record
Temperature  
Mean Temperature 80 °F -  
Max Temperature 88 °F 85 °F 97 °F (1998)
Min Temperature 73 °F 72 °F 68 °F (2007)
Cooling Degree Days 15    
Growing Degree Days 30 (Base 50)    
Moisture  
Dew Point 70 °F    
Average Humidity 70    
Maximum Humidity 91    
Minimum Humidity 53    
Precipitation  
Precipitation 0.00 in - - ()
Sea Level Pressure  
Sea Level Pressure 30.13 in    
Wind  
Wind Speed 6 mph (SE)    
Max Wind Speed 15 mph    
Max Gust Speed -    
Visibility 10 miles    
Events      
Averages and records for this station are not official NWS values.
T = Trace of Precipitation, MM = Missing Value Source: NWS Daily Summary

Daily Weather History Graph

Daily Weather History Graph

Search for Another Location

Airport or City:

Trip Planner

Search our weather history database for the weather conditions in past years. The results will help you decide how hot, cold, wet, or windy it might be!

Date:

Astronomy

Jun. 18, 2014 Rise Set
Actual Time 6:23 AM EDT 8:30 PM EDT
Civil Twilight 5:56 AM EDT 8:57 PM EDT
Nautical Twilight 5:22 AM EDT 9:31 PM EDT
Astronomical Twilight 4:46 AM EDT 10:07 PM EDT
Moon 12:19 AM EDT (6/18) 12:21 PM EDT (6/18)
Length of Visible Light 15h 01m
Length of Day
14h 06m
Waning Gibbous, 63% of the Moon is Illuminated
Jun 18
Waning Gibbous
Jun 19
Last Quarter
Jun 27
New
Jul 5
First Quarter
Jul 12
Full

Hourly Weather History & Observations

Time (EDT) Temp. Heat Index Dew Point Humidity Pressure Visibility Wind Dir Wind Speed Gust Speed Precip Events Conditions
12:52 AM 79.0 °F - 71.1 °F 77% 30.14 in 10.0 mi ESE 4.6 mph - N/A   Partly Cloudy
1:52 AM 79.0 °F - 71.1 °F 77% 30.13 in 10.0 mi SSE 4.6 mph - N/A   Partly Cloudy
2:52 AM 77.0 °F - 71.1 °F 82% 30.11 in 10.0 mi South 4.6 mph - N/A   Partly Cloudy
3:52 AM 77.0 °F - 71.1 °F 82% 30.10 in 10.0 mi Calm Calm - N/A   Partly Cloudy
4:52 AM 75.9 °F - 72.0 °F 87% 30.11 in 10.0 mi Calm Calm - N/A   Clear
5:50 AM 75.2 °F - 71.6 °F 89% 30.11 in 10.0 mi WSW 4.6 mph - N/A   Partly Cloudy
5:52 AM 75.0 °F - 71.1 °F 87% 30.11 in 10.0 mi WSW 3.5 mph - N/A   Partly Cloudy
6:52 AM 73.9 °F - 71.1 °F 91% 30.13 in 10.0 mi Calm Calm - N/A   Partly Cloudy
7:52 AM 78.1 °F - 72.0 °F 81% 30.14 in 10.0 mi WSW 3.5 mph - N/A   Partly Cloudy
8:52 AM 82.0 °F 86.3 °F 71.1 °F 69% 30.16 in 10.0 mi Calm Calm - N/A   Scattered Clouds
9:52 AM 84.9 °F 88.8 °F 69.1 °F 59% 30.17 in 10.0 mi NNE 5.8 mph - N/A   Scattered Clouds
10:52 AM 84.9 °F 90.1 °F 71.1 °F 63% 30.16 in 10.0 mi ENE 9.2 mph - N/A   Scattered Clouds
11:52 AM 86.0 °F 91.5 °F 71.1 °F 61% 30.16 in 10.0 mi ENE 10.4 mph - N/A   Scattered Clouds
12:52 PM 86.0 °F 91.5 °F 71.1 °F 61% 30.15 in 10.0 mi ENE 11.5 mph - N/A   Partly Cloudy
1:52 PM 87.1 °F 92.0 °F 70.0 °F 57% 30.15 in 10.0 mi East 11.5 mph - N/A   Partly Cloudy
2:52 PM 87.1 °F 92.0 °F 70.0 °F 57% 30.14 in 10.0 mi East 10.4 mph - N/A   Partly Cloudy
3:52 PM 86.0 °F 90.7 °F 70.0 °F 59% 30.12 in 10.0 mi East 11.5 mph - N/A   Scattered Clouds
4:52 PM 86.0 °F 90.7 °F 70.0 °F 59% 30.12 in 10.0 mi ESE 15.0 mph - N/A   Partly Cloudy
5:52 PM 86.0 °F 88.8 °F 66.9 °F 53% 30.10 in 10.0 mi ESE 12.7 mph - N/A   Partly Cloudy
6:52 PM 84.0 °F 87.8 °F 69.1 °F 61% 30.10 in 10.0 mi ESE 10.4 mph - N/A   Partly Cloudy
7:52 PM 82.0 °F 84.9 °F 68.0 °F 62% 30.12 in 10.0 mi SSE 12.7 mph - N/A   Partly Cloudy
8:52 PM 81.0 °F 83.8 °F 68.0 °F 65% 30.12 in 10.0 mi SE 10.4 mph - N/A   Partly Cloudy
9:52 PM 80.1 °F 83.2 °F 70.0 °F 71% 30.14 in 10.0 mi SSE 9.2 mph - N/A   Partly Cloudy
10:52 PM 80.1 °F 83.2 °F 70.0 °F 71% 30.15 in 10.0 mi South 6.9 mph - N/A   Scattered Clouds
11:52 PM 78.1 °F - 70.0 °F 76% 30.14 in 10.0 mi South 4.6 mph - N/A   Partly Cloudy